Location: French Creek State Gamelands
(40.1750°N, 75.7969°W)
Time: 23:38:22
(UTC-04:00)

ISS - All Passes

Search period start: 30 July 2016 00:00
Search period end: 09 August 2016 00:00
Orbit: 401 x 404 km, 51.6° (Epoch: 30 July)

Date Brightness Start Highest point End Pass type
(mag) Time Alt. Az. Time Alt. Az. Time Alt. Az.
30 Jul - 01:20:08 10° NNW 01:22:12 15° NNE 01:24:16 10° NE visible
30 Jul - 02:55:54 10° NW 02:59:09 63° NE 03:02:22 10° ESE night (unlit)
30 Jul - 04:33:33 10° W 04:35:12 13° SW 04:36:51 10° SSW night (unlit)
30 Jul - 19:35:13 10° S 19:37:56 25° SE 19:40:40 10° ENE daylight
30 Jul - 21:11:13 10° W 21:14:16 36° NNW 21:17:19 10° NE visible
30 Jul - 22:49:51 10° NW 22:51:25 13° N 22:52:59 10° NNE visible
31 Jul - 00:27:25 10° NNW 00:28:57 13° N 00:30:30 10° NE visible
31 Jul - 02:03:05 10° NW 02:06:08 35° NNE 02:09:09 10° E night (unlit)
31 Jul - 03:39:42 10° WNW 03:42:28 26° SW 03:45:13 10° SSE night (unlit)
31 Jul - 18:43:40 10° SSE 18:45:12 13° SE 18:46:44 10° E daylight
31 Jul - 20:18:01 10° WSW 20:21:15 65° NW 20:24:29 10° NE daylight
31 Jul - 21:56:05 10° WNW 21:58:10 16° NNW 22:00:16 10° NNE visible
31 Jul - 23:34:33 10° NNW 23:35:41 11° N 23:36:49 10° NNE visible
01 Aug - 01:10:21 10° NNW 01:13:02 23° NNE 01:15:42 10° E visible
01 Aug - 02:46:28 10° WNW 02:49:39 52° SW 02:52:49 10° SE night (unlit)
01 Aug - 19:25:07 10° SW 19:28:19 62° SE 19:31:33 10° ENE daylight
01 Aug - 21:02:25 10° WNW 21:05:00 21° NNW 21:07:34 10° NNE visible
01 Aug - 22:41:18 10° NNW 22:42:23 11° N 22:43:28 10° NNE visible
02 Aug - 00:17:39 10° NNW 00:19:51 17° NNE 00:22:04 10° ENE visible
02 Aug - 01:53:28 10° NW 01:56:44 76° NE 01:59:59 10° ESE night (unlit)
02 Aug - 03:31:48 10° WSW 03:32:43 11° SW 03:33:37 10° SW night (unlit)
02 Aug - 18:32:35 10° SSW 18:35:29 30° SE 18:38:22 10° ENE daylight
02 Aug - 20:08:55 10° W 20:11:53 31° NNW 20:14:50 10° NE daylight
02 Aug - 21:47:40 10° NW 21:49:05 12° N 21:50:31 10° NNE visible
02 Aug - 23:24:57 10° NNW 23:26:37 13° NNE 23:28:18 10° NE visible
03 Aug - 01:00:37 10° NW 01:03:45 40° NNE 01:06:50 10° ESE visible
03 Aug - 02:37:26 10° W 02:40:00 21° SW 02:42:33 10° S night (unlit)
03 Aug - 17:40:42 10° S 17:42:43 15° SE 17:44:43 10° E daylight
03 Aug - 19:15:38 10° WSW 19:18:50 54° NNW 19:22:02 10° NE daylight
03 Aug - 20:53:53 10° NW 20:55:50 15° NNW 20:57:47 10° NNE visible
03 Aug - 22:32:08 10° NNW 22:33:21 12° N 22:34:34 10° NNE visible
04 Aug - 00:07:52 10° NNW 00:10:40 25° NNE 00:13:26 10° E visible
04 Aug - 01:44:05 10° WNW 01:47:11 42° SW 01:50:17 10° SSE night (unlit)
04 Aug - 18:22:38 10° SW 18:25:52 76° SE 18:29:07 10° NE daylight
04 Aug - 20:00:10 10° WNW 20:02:37 19° NNW 20:05:04 10° NNE daylight
04 Aug - 21:39:00 10° NNW 21:40:03 11° N 21:41:05 10° NNE visible
04 Aug - 23:15:09 10° NNW 23:17:29 18° NNE 23:19:50 10° ENE visible
05 Aug - 00:51:02 10° NW 00:54:18 89° SW 00:57:33 10° SE visible
05 Aug - 17:29:58 10° SSW 17:32:59 36° SE 17:36:02 10° ENE daylight
05 Aug - 19:06:36 10° W 19:09:28 28° NNW 19:12:20 10° NE daylight
05 Aug - 20:45:26 10° NNW 20:46:44 12° N 20:48:03 10° NNE visible
05 Aug - 22:22:26 10° NNW 22:24:16 14° NNE 22:26:05 10° NE visible
05 Aug - 23:58:08 10° NW 00:01:19 47° NNE 00:04:28 10° ESE visible
06 Aug - 01:35:12 10° W 01:37:29 18° SW 01:39:47 10° S night (unlit)
06 Aug - 16:37:51 10° S 16:40:12 18° SE 16:42:33 10° E daylight
06 Aug - 18:13:14 10° WSW 18:16:23 46° NNW 18:19:34 10° NE daylight
06 Aug - 19:51:39 10° NW 19:53:27 14° NNW 19:55:16 10° NNE daylight
06 Aug - 21:29:39 10° NNW 21:30:59 12° N 21:32:19 10° NNE visible
06 Aug - 23:05:21 10° NW 23:08:15 28° NNE 23:11:08 10° E visible
07 Aug - 00:41:41 10° WNW 00:44:42 35° SW 00:47:42 10° SSE night (unlit)
07 Aug - 17:20:09 10° SW 17:23:24 88° NW 17:26:41 10° NE daylight
07 Aug - 18:57:54 10° WNW 19:00:13 18° NNW 19:02:33 10° NNE daylight
07 Aug - 20:36:37 10° NNW 20:37:41 11° N 20:38:43 10° NNE visible
07 Aug - 22:12:38 10° NNW 22:15:06 20° NNE 22:17:34 10° ENE visible
07 Aug - 23:48:34 10° NW 23:51:50 73° SW 23:55:04 10° SE visible
08 Aug - 16:27:23 10° SSW 16:30:29 44° SE 16:33:37 10° ENE daylight
08 Aug - 18:04:17 10° W 18:07:03 25° NNW 18:09:49 10° NNE daylight
08 Aug - 19:43:10 10° NNW 19:44:22 12° N 19:45:35 10° NNE daylight
08 Aug - 21:19:54 10° NNW 21:21:53 15° NNE 21:23:51 10° NE visible
08 Aug - 22:55:39 10° NW 22:58:52 56° NE 23:02:04 10° ESE visible
